• In Uzbekistan
  • List of Countries
  • For 7 days
  • Water Temperature
  • Weather Map
  • Weather Widgets
  • user-avatar
    Login

    Hourly Weather Solden

    Today, 18 October, Friday

    Time Temperature Precipitation Wind Pressure Humidity
    00:00 0°C° 0 mm 0 mps 582 mmHg 93%
    01:00 0°C° 0 mm 0 mps 582 mmHg 91%
    02:00 0°C° 0 mm 0 mps 582 mmHg 91%
    03:00 0°C° 0 mm 0 mps 581 mmHg 90%
    04:00 0°C° 0 mm 0 mps 581 mmHg 90%
    05:00 0°C° 0 mm 0 mps 581 mmHg 89%
    06:00 -1°C° 0 mm 0 mps 581 mmHg 89%
    07:00 -1°C° 0 mm 0 mps 581 mmHg 89%
    08:00 +2°C° 0 mm 1 mps 582 mmHg 85%
    09:00 +4°C° 0 mm 1 mps 582 mmHg 80%
    10:00 +5°C° 0 mm 1 mps 583 mmHg 75%
    11:00 +6°C° 0 mm 1 mps 583 mmHg 75%
    12:00 +6°C° 0 mm 1 mps 583 mmHg 74%
    13:00 +6°C° 0 mm 1 mps 583 mmHg 74%
    14:00 +6°C° 0 mm 1 mps 583 mmHg 77%
    15:00 +6°C° 0 mm 1 mps 582 mmHg 81%
    16:00 +5°C° 0 mm 1 mps 582 mmHg 84%
    17:00 +4°C° 0 mm 1 mps 582 mmHg 87%
    18:00 +4°C° 0 mm 1 mps 582 mmHg 91%
    19:00 +3°C° 0 mm 1 mps 581 mmHg 94%
    20:00 +3°C° 0 mm 1 mps 581 mmHg 95%
    21:00 +3°C° 0 mm 1 mps 582 mmHg 95%
    22:00 +3°C° 0 mm 1 mps 582 mmHg 96%
    23:00 +3°C° 0.1 mm 1 mps 581 mmHg 96%

    Tomorrow, 19 October, Saturday

    Time Temperature Precipitation Wind Pressure Humidity
    00:00 +3°C° 0.1 mm 1 mps 581 mmHg 96%
    01:00 +3°C° 0.1 mm 1 mps 581 mmHg 97%
    02:00 +3°C° 0.3 mm 1 mps 581 mmHg 97%
    03:00 +3°C° 0.3 mm 1 mps 580 mmHg 97%
    04:00 +3°C° 0.3 mm 1 mps 580 mmHg 98%
    05:00 +3°C° 0.3 mm 1 mps 580 mmHg 98%
    06:00 +3°C° 0.3 mm 1 mps 580 mmHg 98%
    07:00 +3°C° 0.3 mm 1 mps 580 mmHg 98%
    08:00 +2°C° 0.3 mm 2 mps 580 mmHg 98%
    09:00 +2°C° 0.3 mm 2 mps 580 mmHg 97%
    10:00 +3°C° 0.3 mm 2 mps 580 mmHg 97%
    11:00 +3°C° 0.2 mm 2 mps 580 mmHg 97%
    12:00 +3°C° 0.2 mm 2 mps 581 mmHg 97%
    13:00 +3°C° 0.2 mm 2 mps 581 mmHg 97%
    14:00 +4°C° 0.2 mm 1 mps 581 mmHg 97%
    15:00 +4°C° 0.2 mm 1 mps 581 mmHg 97%
    16:00 +4°C° 0.2 mm 1 mps 580 mmHg 97%
    17:00 +4°C° 0.1 mm 1 mps 581 mmHg 97%
    18:00 +4°C° 0.1 mm 1 mps 581 mmHg 98%
    19:00 +4°C° 0.1 mm 1 mps 581 mmHg 98%
    20:00 +4°C° 0.2 mm 1 mps 581 mmHg 98%
    21:00 +4°C° 0.2 mm 1 mps 582 mmHg 98%
    22:00 +4°C° 0.2 mm 1 mps 582 mmHg 98%
    23:00 +4°C° 0.1 mm 1 mps 582 mmHg 98%

    Day after tomorrow, 20 October, Sunday

    Time Temperature Precipitation Wind Pressure Humidity
    00:00 +4°C° 0.1 mm 1 mps 582 mmHg 98%
    01:00 +3°C° 0.1 mm 2 mps 582 mmHg 98%
    02:00 +3°C° 0.2 mm 2 mps 582 mmHg 98%
    03:00 +3°C° 0.2 mm 2 mps 581 mmHg 98%
    04:00 +3°C° 0.2 mm 2 mps 581 mmHg 98%
    05:00 +3°C° 0.2 mm 2 mps 581 mmHg 98%
    06:00 +3°C° 0.2 mm 2 mps 581 mmHg 98%
    07:00 +3°C° 0.2 mm 2 mps 581 mmHg 98%
    08:00 +4°C° 0.1 mm 2 mps 582 mmHg 96%
    09:00 +4°C° 0.1 mm 2 mps 582 mmHg 95%
    10:00 +5°C° 0.1 mm 2 mps 583 mmHg 94%
    11:00 +5°C° 0.2 mm 2 mps 583 mmHg 91%
    12:00 +6°C° 0.2 mm 2 mps 583 mmHg 88%
    13:00 +6°C° 0.2 mm 2 mps 583 mmHg 86%
    14:00 +6°C° 0.2 mm 2 mps 582 mmHg 88%
    15:00 +6°C° 0.2 mm 2 mps 582 mmHg 91%
    16:00 +5°C° 0.2 mm 2 mps 582 mmHg 93%
    17:00 +5°C° 0.1 mm 2 mps 582 mmHg 94%
    18:00 +5°C° 0.1 mm 2 mps 582 mmHg 95%
    19:00 +4°C° 0.1 mm 2 mps 582 mmHg 96%
    20:00 +4°C° 0.1 mm 2 mps 582 mmHg 96%
    21:00 +4°C° 0.1 mm 2 mps 582 mmHg 96%
    22:00 +4°C° 0.1 mm 2 mps 583 mmHg 96%
    23:00 +4°C° 0.7 mm 2 mps 583 mmHg 97%

    21 October, Monday

    Time Temperature Precipitation Wind Pressure Humidity
    00:00 +4°C° 0.7 mm 2 mps 583 mmHg 97%
    01:00 +4°C° 0.7 mm 2 mps 583 mmHg 98%
    02:00 +4°C° 0.4 mm 2 mps 583 mmHg 98%
    03:00 +4°C° 0.4 mm 2 mps 583 mmHg 98%
    04:00 +4°C° 0.4 mm 2 mps 583 mmHg 98%
    05:00 +4°C° 0.2 mm 2 mps 584 mmHg 98%
    06:00 +4°C° 0.2 mm 2 mps 584 mmHg 98%
    07:00 +5°C° 0.2 mm 1 mps 584 mmHg 97%
    08:00 +5°C° 0.1 mm 1 mps 584 mmHg 97%
    09:00 +6°C° 0.1 mm 1 mps 585 mmHg 96%
    10:00 +6°C° 0.1 mm 1 mps 586 mmHg 95%
    11:00 +7°C° 0.2 mm 1 mps 586 mmHg 94%
    12:00 +7°C° 0.2 mm 1 mps 586 mmHg 92%
    13:00 +7°C° 0.2 mm 2 mps 587 mmHg 91%
    14:00 +8°C° 0.3 mm 1 mps 587 mmHg 92%
    15:00 +7°C° 0.3 mm 1 mps 586 mmHg 93%
    16:00 +7°C° 0.3 mm 1 mps 586 mmHg 94%
    17:00 +7°C° 0.3 mm 1 mps 586 mmHg 95%
    18:00 +6°C° 0.3 mm 1 mps 587 mmHg 96%
    19:00 +6°C° 0.3 mm 1 mps 587 mmHg 97%
    20:00 +6°C° 0.3 mm 1 mps 587 mmHg 97%
    21:00 +6°C° 0.3 mm 1 mps 587 mmHg 97%
    22:00 +6°C° 0.3 mm 1 mps 587 mmHg 97%
    23:00 +6°C° 0.1 mm 1 mps 587 mmHg 97%

    22 October, Tuesday

    Time Temperature Precipitation Wind Pressure Humidity
    00:00 +6°C° 0.1 mm 1 mps 587 mmHg 97%
    01:00 +5°C° 0.1 mm 1 mps 587 mmHg 97%
    02:00 +5°C° 0 mm 1 mps 587 mmHg 97%
    03:00 +5°C° 0 mm 1 mps 587 mmHg 97%
    04:00 +5°C° 0 mm 1 mps 587 mmHg 97%
    05:00 +5°C° 0 mm 1 mps 587 mmHg 96%
    06:00 +5°C° 0 mm 1 mps 587 mmHg 96%
    07:00 +5°C° 0 mm 1 mps 587 mmHg 96%
    08:00 +6°C° 0 mm 1 mps 587 mmHg 92%
    09:00 +7°C° 0 mm 1 mps 588 mmHg 88%
    10:00 +8°C° 0 mm 1 mps 589 mmHg 84%
    11:00 +9°C° 0 mm 1 mps 589 mmHg 80%
    12:00 +10°C° 0 mm 1 mps 589 mmHg 76%
    13:00 +11°C° 0 mm 1 mps 590 mmHg 71%
    14:00 +11°C° 0 mm 1 mps 589 mmHg 74%
    15:00 +10°C° 0 mm 1 mps 589 mmHg 78%
    16:00 +9°C° 0 mm 1 mps 588 mmHg 81%
    17:00 +8°C° 0 mm 1 mps 587 mmHg 84%
    18:00 +7°C° 0 mm 1 mps 587 mmHg 88%
    19:00 +5°C° 0 mm 1 mps 586 mmHg 92%
    20:00 +5°C° 0 mm 1 mps 586 mmHg 92%
    21:00 +5°C° 0 mm 1 mps 586 mmHg 92%
    22:00 +5°C° 0 mm 1 mps 586 mmHg 92%
    23:00 +4°C° 0 mm 1 mps 586 mmHg 92%

    23 October, Wednesday

    Time Temperature Precipitation Wind Pressure Humidity
    00:00 +4°C° 0 mm 1 mps 586 mmHg 91%
    01:00 +4°C° 0 mm 1 mps 585 mmHg 90%
    02:00 +4°C° 0 mm 1 mps 585 mmHg 89%
    03:00 +3°C° 0 mm 1 mps 585 mmHg 87%
    04:00 +3°C° 0 mm 1 mps 584 mmHg 86%
    05:00 +3°C° 0 mm 1 mps 584 mmHg 84%
    06:00 +3°C° 0 mm 1 mps 584 mmHg 81%
    07:00 +3°C° 0 mm 1 mps 584 mmHg 79%
    08:00 +5°C° 0 mm 1 mps 585 mmHg 74%
    09:00 +7°C° 0 mm 1 mps 586 mmHg 68%
    10:00 +9°C° 0 mm 1 mps 587 mmHg 62%
    11:00 +10°C° 0 mm 1 mps 587 mmHg 60%
    12:00 +10°C° 0 mm 1 mps 587 mmHg 58%
    13:00 +10°C° 0 mm 2 mps 587 mmHg 56%
    14:00 +11°C° 0 mm 1 mps 586 mmHg 61%
    15:00 +10°C° 0 mm 1 mps 586 mmHg 65%
    16:00 +9°C° 0 mm 1 mps 585 mmHg 70%
    17:00 +8°C° 0 mm 1 mps 585 mmHg 75%
    18:00 +6°C° 0 mm 1 mps 584 mmHg 80%
    19:00 +4°C° 0 mm 1 mps 584 mmHg 85%
    20:00 +4°C° 0 mm 1 mps 584 mmHg 85%
    21:00 +4°C° 0 mm 1 mps 583 mmHg 84%
    22:00 +4°C° 0 mm 1 mps 583 mmHg 84%
    23:00 +4°C° 0 mm 1 mps 583 mmHg 82%
    Show more